This demonstration page uses our WeatherBlox Daily Observations layout. Learn more.

Left ArrowRight Arrow

40.92945, -100.16068

Hourly Observations for February 18, 2015

Temp ( °F °C ) Dew Point ( °F °C ) Humidity (%) Winds ( mph kmh ) Pressure ( in mb ) Visibility ( mi km ) Precip ( " mm )
12:15 am 00:15 Clear 19 -7.5 7 -13.7 62 62 NW 13 20 30.27 1025 10 16 N/A
12:35 am 00:35 Clear 18 -7.7 7 -13.8 62 62 NW 10 17 30.30 1026 10 16 N/A
12:55 am 00:55 Clear 17 -8.2 7 -14 63 63 NW 10 17 30.33 1027 10 16 N/A
1:15 am 01:15 Clear 17 -8.2 6 -14.2 62 62 NNW 15 24 30.33 1027 10 16 N/A
1:35 am 01:35 Clear 17 -8.3 5 -15.2 58 58 NNW 14 22 30.33 1027 10 16 N/A
1:55 am 01:55 Clear 16 -9 4 -15.5 60 60 NNW 9 15 30.33 1027 10 16 N/A
2:15 am 02:15 Clear 15 -9.2 4 -15.5 61 61 NNW 10 17 30.33 1027 10 16 N/A
2:35 am 02:35 Clear 16 -9.1 3 -16.3 56 56 NNW 13 20 30.33 1027 10 16 N/A
2:55 am 02:55 Clear 13 -10.4 3 -16 64 64 NW 8 13 30.36 1028 10 16 N/A
3:15 am 03:15 Clear 11 -11.4 3 -16 69 69 WNW 7 11 30.36 1028 10 16 N/A
3:35 am 03:35 Clear 12 -11.3 3 -15.9 69 69 NW 9 15 30.36 1028 10 16 N/A
3:55 am 03:55 Clear 13 -10.7 2 -16.5 63 63 NNW 8 13 30.39 1029 10 16 N/A
4:15 am 04:15 Clear 12 -11.3 2 -16.6 65 65 WNW 7 11 30.39 1029 10 16 N/A
4:35 am 04:35 Clear 12 -11.2 2 -16.6 65 65 NW 9 15 30.39 1029 10 16 N/A
4:55 am 04:55 Clear 11 -11.6 2 -16.4 68 68 WNW 8 13 30.39 1029 10 16 N/A
5:15 am 05:15 Clear 11 -11.7 2 -16.5 68 68 NW 10 17 30.39 1029 10 16 N/A
5:35 am 05:35 Clear 11 -11.7 2 -16.4 68 68 W 9 15 30.45 1031 10 16 N/A
5:55 am 05:55 Clear 11 -11.7 2 -16.6 67 67 NW 8 13 30.45 1031 10 16 N/A
6:15 am 06:15 Clear 11 -11.6 2 -16.5 67 67 WNW 10 17 30.45 1031 10 16 N/A
6:35 am 06:35 Clear 11 -11.7 2 -16.6 67 67 NW 10 17 30.45 1031 10 16 N/A
6:55 am 06:55 Clear 11 -11.7 2 -16.6 67 67 WNW 10 17 30.45 1031 10 16 N/A
7:15 am 07:15 Clear 11 -11.7 2 -16.9 66 66 NW 9 15 30.48 1032 10 16 N/A
7:35 am 07:35 Sunny 10 -12.3 2 -16.6 71 71 NW 7 11 30.48 1032 10 16 N/A
7:55 am 07:55 Sunny 10 -12.2 2 -16.5 71 71 NW 6 9 30.48 1032 10 16 N/A
8:15 am 08:15 Sunny 12 -11.2 3 -16 68 68 WNW 12 19 30.48 1032 10 16 N/A
8:35 am 08:35 Partly Cloudy 13 -10.6 3 -16.2 64 64 NW 14 22 30.48 1032 10 16 N/A
8:55 am 08:55 Cloudy 14 -10 3 -16.2 61 61 NNW 17 28 30.48 1032 10 16 N/A
9:15 am 09:15 Partly Cloudy 15 -9.7 3 -16.2 59 59 NNW 16 26 30.48 1032 10 16 N/A
9:35 am 09:35 Sunny 15 -9.2 3 -16.1 58 58 NW 12 19 30.48 1032 10 16 N/A
9:55 am 09:55 Sunny 16 -9.1 2 -16.4 56 56 NW 14 22 30.50 1033 10 16 N/A
10:15 am 10:15 Sunny 18 -8 2 -16.5 51 51 NNW 18 30 30.48 1032 10 16 N/A
10:35 am 10:35 Sunny 19 -7 2 -16.6 47 47 NNW 16 26 30.45 1031 10 16 N/A
10:55 am 10:55 Sunny 21 -6 2 -16.6 43 43 NW 16 26 30.48 1032 10 16 N/A
11:15 am 11:15 Sunny 21 -6 2 -16.8 43 43 NW 16 26 30.48 1032 10 16 N/A
11:35 am 11:35 Sunny 22 -5.4 2 -16.8 41 41 NNW 16 26 30.45 1031 10 16 N/A
11:55 am 11:55 Sunny 23 -4.9 2 -16.5 40 40 NNW 13 20 30.45 1031 10 16 N/A
12:15 pm 12:15 Sunny 25 -4.1 2 -16.5 38 38 NNW 10 17 30.45 1031 10 16 N/A
12:35 pm 12:35 Sunny 25 -3.7 2 -16.4 37 37 NNW 16 26 30.42 1030 10 16 N/A
12:55 pm 12:55 Sunny 26 -3.2 2 -16.5 35 35 NNW 13 20 30.42 1030 10 16 N/A
1:15 pm 13:15 Sunny 26 -3.3 2 -16.5 36 36 NNW 13 20 30.42 1030 10 16 N/A
1:35 pm 13:35 Sunny 27 -2.8 3 -16.3 35 35 NNW 14 22 30.42 1030 10 16 N/A
1:55 pm 13:55 Sunny 28 -2.1 2 -16.6 32 32 NNW 14 22 30.39 1029 10 16 N/A
2:15 pm 14:15 Partly Cloudy 29 -1.9 1 -17.1 31 31 NW 17 28 30.39 1029 10 16 N/A
2:35 pm 14:35 Mostly Cloudy 29 -1.7 1 -17.2 30 30 NNW 15 24 30.36 1028 10 16 N/A
2:55 pm 14:55 Cloudy 29 -1.5 2 -16.8 30 30 NW 16 26 30.36 1028 10 16 N/A
3:15 pm 15:15 Mostly Cloudy 30 -1.2 1 -17.5 28 28 NNW 18 30 30.36 1028 10 16 N/A
3:35 pm 15:35 Cloudy 29 -1.4 1 -17.2 29 29 NNW 13 20 30.36 1028 10 16 N/A
3:55 pm 15:55 Cloudy 30 -1 2 -16.7 30 30 NNW 15 24 30.36 1028 10 16 N/A
4:15 pm 16:15 Cloudy 30 -1 2 -16.9 29 29 NNW 16 26 30.36 1028 10 16 N/A
4:35 pm 16:35 Cloudy 30 -1 2 -16.5 30 30 NNW 15 24 30.36 1028 10 16 N/A
4:55 pm 16:55 Cloudy 30 -1 2 -16.7 30 30 NNW 14 22 30.36 1028 10 16 N/A
5:15 pm 17:15 Cloudy 30 -1.1 1 -17.5 28 28 NNW 13 20 30.36 1028 10 16 N/A
5:35 pm 17:35 Cloudy 30 -1.3 2 -16.7 30 30 NNW 10 17 30.36 1028 10 16 N/A
5:55 pm 17:55 Cloudy 29 -1.6 3 -16.2 32 32 N 9 15 30.36 1028 10 16 N/A
6:15 pm 18:15 Cloudy 28 -2 4 -15.3 36 36 N 5 7 30.36 1028 10 16 N/A
6:35 pm 18:35 Cloudy 28 -2.5 7 -14.1 41 41 N 5 7 30.36 1028 10 16 N/A
6:55 pm 18:55 Cloudy 27 -2.8 8 -13.5 44 44 N 5 7 30.42 1030 10 16 N/A
7:15 pm 19:15 Cloudy 27 -2.7 8 -13.2 45 45 NE 5 7 30.36 1028 10 16 N/A
7:35 pm 19:35 Cloudy 27 -2.9 9 -12.6 48 48 ENE 3 6 30.42 1030 10 16 N/A
7:55 pm 19:55 Cloudy 26 -3.5 5 -15 41 41 ENE 5 7 30.42 1030 10 16 N/A
8:15 pm 20:15 Cloudy 25 -3.9 5 -15.2 41 41 E 8 13 30.42 1030 10 16 N/A
8:35 pm 20:35 Cloudy 24 -4.5 8 -13.5 50 50 E 9 15 30.42 1030 10 16 N/A
8:55 pm 20:55 Cloudy 22 -5.3 8 -13.5 53 53 E 9 15 30.42 1030 10 16 N/A
9:15 pm 21:15 Cloudy 22 -5.5 8 -13.3 55 55 ESE 8 13 30.42 1030 10 16 N/A
9:35 pm 21:35 Cloudy 22 -5.6 8 -13.4 55 55 SE 7 11 30.45 1031 10 16 N/A
9:55 pm 21:55 Cloudy 22 -5.8 9 -13 57 57 SE 8 13 30.45 1031 10 16 N/A
10:15 pm 22:15 Cloudy 21 -6 8 -13.1 58 58 ESE 8 13 30.45 1031 10 16 N/A
10:35 pm 22:35 Cloudy 21 -6 8 -13.3 57 57 SE 7 11 30.45 1031 10 16 N/A
10:55 pm 22:55 Cloudy 21 -6.2 9 -13 59 59 ESE 7 11 30.45 1031 10 16 N/A
11:15 pm 23:15 Cloudy 20 -6.5 7 -13.7 57 57 SE 8 13 30.45 1031 10 16 N/A
11:35 pm 23:35 Cloudy 20 -6.5 7 -13.8 57 57 SE 9 15 30.45 1031 10 16 N/A
11:55 pm 23:55 Cloudy 20 -6.5 8 -13.6 57 57 SE 8 13 30.45 1031 10 16 N/A

Powered by AerisWeather